[[{"header":{"parameterUnit":"m.s-1","parameterCategory":1,"la1":30.2991,"la2":30.254,"lo1":-89.0895,"lo2":-89.0444,"dy":0.0017,"dx":0.0017,"nx":28,"ny":28,"refTime":"2025-05-27T21:00:00:Z","depth":0,"parameterNumber":2,"parameterNumberName":"U-component_of_WINDS"},"data":[0,0,0,0,0,0,0,0,0,0,0,0,0,0,0,0,0,0,0,0,0,0,0,0,0,0,0,0,0,0,0,0,0,0,0,0,0,0,0,0,0,0,0,0,0,0,0,0,0,0,0,0,0,0,0,0,0,0,1.9637,1.9637,0,1.956,1.9559,1.9558,1.942,1.9417,1.9414,1.9412,1.9336,1.9336,1.9337,0,0,0,0,0,0,0,0,0,0,0,0,0,1.9665,1.9665,1.9638,1.9637,1.9636,1.956,1.9559,1.9558,1.942,1.9417,1.9414,1.9411,1.9336,1.9336,1.9337,0,0,0,0,0,0,0,0,0,0,0,0,0,1.9627,1.9665,1.9638,1.9558,1.955,1.956,1.9559,1.9558,1.9421,1.9417,1.9413,1.9409,1.9335,1.9336,1.9337,1.942,0,0,1.9339,1.9339,0,0,0,0,0,0,0,0,1.9629,1.9626,1.957,1.9563,1.9554,1.9495,1.9541,1.9512,1.9422,1.947,1.9412,1.9407,1.9392,1.9388,1.9382,1.9417,1.9413,1.9339,1.9339,1.9339,1.934,0,0,0,0,0,0,0,1.9632,1.9629,1.9607,1.957,1.956,1.9525,1.9515,1.9535,1.9454,1.9465,1.9455,1.9448,1.9387,1.9382,1.9379,1.9412,1.9339,1.9339,1.934,1.934,1.9507,1.9511,0,0,0,0,0,0,1.9646,1.9632,1.9609,1.9605,1.9583,1.9528,1.9517,1.9518,1.9454,1.944,1.9451,1.9441,1.9383,1.9379,1.9376,1.9467,1.9339,1.934,1.934,1.9503,1.9508,1.9512,0,0,0,0,0,0,1.9648,1.9646,1.9612,1.9615,1.9608,1.9532,1.9534,1.9519,1.9514,1.9443,1.9428,1.9461,1.938,1.9375,1.9409,1.9463,1.934,1.9341,1.9498,1.9504,1.951,1.9653,0,0,0,0,0,0,1.9649,1.9647,1.9679,1.9617,1.9609,1.9648,1.9538,1.952,1.9515,1.9502,1.9448,1.9435,1.9376,1.9409,1.941,1.9462,1.9341,1.9493,1.9501,1.9508,1.9643,1.9663,1.968,0,0,0,0,0,1.965,1.9724,1.9681,1.9679,1.9647,1.9651,1.9646,1.9576,1.952,1.955,1.9504,1.9437,1.9457,1.9414,1.9413,1.9466,1.9489,1.9499,1.9507,1.9635,1.9659,1.968,0,0,0,0,0,0,1.9796,1.9714,1.9666,1.9722,1.9694,1.9628,1.9665,1.9604,1.9593,1.9582,1.9495,1.9484,1.9529,1.95,1.9454,1.9541,1.9462,1.9472,1.9559,1.9581,1.96,1.9606,1.9342,0,0,0,0,0,1.9834,1.9844,1.9772,1.9828,1.9816,1.9743,1.9742,1.969,1.9658,1.9646,1.9603,1.9575,1.9574,1.9576,1.9572,1.9637,1.9622,1.9673,1.9692,1.9707,1.9717,1.9746,1.9767,1.9542,1.9542,1.9542,0,0,1.9914,1.987,1.9883,1.9856,1.9828,1.984,1.9734,1.9753,1.976,1.9649,1.9678,1.9645,1.9607,1.9657,1.9676,1.9635,1.9775,1.9719,1.9732,1.9733,1.9758,1.9779,1.9798,1.9548,1.9547,1.9546,0,0,2.0065,2.0034,2.0075,2.0049,2.0007,1.9957,1.9967,1.9908,1.9881,1.9908,1.9824,1.9831,1.9833,1.9809,1.9797,1.9934,1.9871,1.9935,2.0032,2.0062,2.008,2.0095,2.0142,2.0161,1.9944,1.9944,1.9945,0,2.0171,2.0185,2.0105,2.0126,2.0116,2.0013,2.0054,2.0032,1.9993,1.9988,1.9941,1.9937,1.9906,1.9946,1.9979,1.9973,1.9981,1.9941,2.0083,2.0098,2.0111,2.0155,2.0173,1.9952,1.9952,1.9951,1.995,0,2.0315,2.0325,2.0364,2.0325,2.0319,2.035,2.0274,2.0277,2.0224,2.0178,2.0205,2.0162,2.0146,2.0151,2.0101,2.0183,2.0158,2.0099,2.0018,2.0142,2.0182,2.0198,1.9964,1.9961,1.9959,1.9957,0,0,2.056,2.0472,2.0488,2.0467,2.0412,2.0418,2.0443,2.0425,2.0429,2.0403,2.0422,2.0423,2.0365,2.0352,2.0297,2.0323,2.0431,2.0259,2.0257,2.0292,2.0517,2.0563,2.0584,2.0388,2.0391,2.0393,2.052,0,2.0699,2.0737,2.0663,2.0719,2.0726,2.0626,2.0647,2.0615,2.0572,2.0572,2.0524,2.0525,2.0451,2.0441,2.0462,2.0414,2.0475,2.0403,2.0404,2.0405,2.0417,2.0605,2.0654,2.0776,2.0535,2.0538,2.054,0,2.0868,2.0848,2.0904,2.084,2.0841,2.0862,2.0837,2.0838,2.0798,2.0764,2.0747,2.0681,2.0699,2.062,2.0643,2.0596,2.0591,2.0567,2.0569,2.0568,2.0481,2.0608,2.0814,2.0832,2.0564,2.0562,2.056,0,2.104,2.1027,2.1057,2.1043,2.0971,2.0987,2.0958,2.0913,2.0906,2.0884,2.0878,2.086,2.085,2.0836,2.0766,2.0715,2.0798,2.0713,2.077,2.0772,2.0793,2.0793,2.1001,2.079,2.079,2.079,2.0789,0,2.1204,2.1242,2.1133,2.1152,2.119,2.1104,2.1144,2.1105,2.1065,2.1074,2.0986,2.0996,2.0903,2.0902,2.0847,2.0874,2.087,2.0843,2.0828,2.0851,2.0855,2.0848,2.0838,2.0794,2.0793,2.0792,2.0791,0,2.1404,2.1332,2.1359,2.1286,2.1268,2.13,2.1237,2.1251,2.12,2.1212,2.121,2.1131,2.1125,2.1053,2.1032,2.0995,2.1043,2.1012,2.1057,2.1047,2.1108,2.1103,2.1319,2.1343,2.1117,2.112,2.1122,0,2.1513,2.1539,2.1468,2.1467,2.1441,2.1441,2.1431,2.1346,2.134,2.1293,2.1313,2.1299,2.1284,2.1279,2.1219,2.1202,2.117,2.1246,2.1167,2.1188,2.117,2.1169,2.1171,2.1264,2.1267,2.1269,2.1271,0,2.1715,2.1677,2.1667,2.1643,2.1634,2.1612,2.1584,2.1588,2.1494,2.1491,2.1483,2.1471,2.1447,2.1434,2.1405,2.1374,2.1307,2.1296,2.1308,2.1333,2.1357,2.1344,2.1103,2.1292,2.129,2.1289,2.1288,2.1287,2.1872,2.1889,2.1841,2.1831,2.18,2.1775,2.1784,2.1732,2.1724,2.1697,2.1647,2.1646,2.16,2.1554,2.1528,2.1525,2.1486,2.1504,2.1509,2.1514,2.1526,2.1357,2.152,2.1519,2.1519,2.1518,2.1518,0,2.2068,2.2031,2.2023,2.1985,2.1977,2.1911,2.1876,2.1874,2.1873,2.1836,2.1822,2.1811,2.1797,2.1734,2.1713,2.1723,2.1691,2.172,2.1719,2.1712,2.1564,2.1555,2.1745,2.1745,2.1745,2.1745,2.1745,2.1745,2.217,2.2194,2.215,2.2158,2.212,2.2117,2.2102,2.2077,2.2047,2.2038,2.2025,2.1984,2.1936,2.1909,2.1893,2.1875,2.1871,2.191,2.1882,2.1745,2.1723,2.1702,2.1693,2.191,2.191,2.203,2.2031,2.2032]},{"header":{"parameterUnit":"m.s-1","parameterCategory":1,"la1":30.2991,"la2":30.254,"lo1":-89.0895,"lo2":-89.0444,"dy":0.0017,"dx":0.0017,"nx":28,"ny":28,"refTime":"2025-05-27T21:00:00:Z","depth":0,"parameterNumber":3,"parameterNumberName":"V-component_of_WINDS"},"data":[0,0,0,0,0,0,0,0,0,0,0,0,0,0,0,0,0,0,0,0,0,0,0,0,0,0,0,0,0,0,0,0,0,0,0,0,0,0,0,0,0,0,0,0,0,0,0,0,0,0,0,0,0,0,0,0,0,0,3.957,3.957,0,3.9637,3.9638,3.9639,3.9551,3.9547,3.9544,3.9541,3.9605,3.961,3.9614,0,0,0,0,0,0,0,0,0,0,0,0,0,3.9356,3.936,3.957,3.957,3.9571,3.9637,3.9638,3.9639,3.9551,3.9547,3.9543,3.954,3.9604,3.9609,3.9615,0,0,0,0,0,0,0,0,0,0,0,0,0,3.9439,3.9362,3.9569,3.9536,3.9533,3.9637,3.9638,3.9639,3.9552,3.9547,3.9542,3.9538,3.9602,3.9609,3.9615,3.9754,0,0,3.9637,3.964,0,0,0,0,0,0,0,0,3.9434,3.9447,3.954,3.9538,3.9536,3.9581,3.9586,3.9678,3.9553,3.9545,3.9541,3.9536,3.9601,3.9607,3.963,3.9757,3.976,3.9637,3.9642,3.9645,3.9647,0,0,0,0,0,0,0,3.9429,3.9443,3.9596,3.9541,3.9539,3.9514,3.9521,3.9603,3.9598,3.9545,3.9539,3.9548,3.9598,3.9624,3.9631,3.9761,3.9637,3.9643,3.9648,3.9651,4.0002,4.0007,0,0,0,0,0,0,3.9428,3.9439,3.9594,3.9598,3.9472,3.9522,3.9529,3.9571,3.9597,3.9597,3.9552,3.9544,3.9614,3.9623,3.9633,3.9796,3.9645,3.9651,3.9655,3.9997,4.0003,4.0009,0,0,0,0,0,0,3.9424,3.9442,3.9591,3.9517,3.9534,3.9531,3.9578,3.9575,3.96,3.9603,3.9601,3.958,3.9611,3.9623,3.9725,3.9797,3.9654,3.9661,3.9991,3.9999,4.0006,4.0124,0,0,0,0,0,0,3.9418,3.9442,3.9496,3.9519,3.9539,3.9685,3.9583,3.958,3.9613,3.9603,3.9628,3.9628,3.9608,3.9715,3.9732,3.9804,3.9666,3.9984,3.9994,4.0003,4.0114,4.0135,4.0153,0,0,0,0,0,3.9411,3.9526,3.95,3.9519,3.9607,3.9689,3.97,3.9677,3.962,3.9673,3.9674,3.9627,3.9786,3.9726,3.9744,3.982,3.998,3.9992,4.0003,4.0105,4.0131,4.0153,0,0,0,0,0,0,3.9511,3.9529,3.9499,3.9626,3.9657,3.9674,3.9741,3.9705,3.9751,3.9739,3.9706,3.9713,3.9821,3.983,3.9762,3.9954,3.9873,3.9889,3.9945,3.9969,3.9989,3.9984,3.9672,0,0,0,0,0,3.9548,3.9615,3.9626,3.9737,3.9754,3.9745,3.978,3.9759,3.9788,3.9801,3.9809,3.9838,3.9894,3.9932,3.9984,4.0114,4.0117,4.0175,4.0195,4.0211,4.0225,4.0293,4.0318,4.0047,4.0047,4.0046,0,0,3.9625,3.9643,3.9687,3.9757,3.9779,3.9846,3.9756,3.9832,3.9881,3.9811,3.9908,3.9915,3.9944,4.0061,4.0112,4.0072,4.03,4.0226,4.0238,4.0244,4.0307,4.0333,4.0356,4.0055,4.0053,4.0052,0,0,3.98,3.9821,3.9915,3.9938,3.9972,3.9965,3.9987,4.0009,4.0012,4.0109,4.0057,4.0113,4.0212,4.0234,4.0259,4.044,4.0397,4.0457,4.056,4.0627,4.0648,4.0667,4.073,4.0754,4.0471,4.0471,4.0472,0,3.9891,3.9993,3.9967,4.0047,4.0078,4.0019,4.0112,4.0135,4.0183,4.0205,4.0159,4.028,4.0296,4.0415,4.0459,4.0481,4.0504,4.0455,4.0647,4.0666,4.0683,4.0743,4.0767,4.0478,4.0478,4.0477,4.0476,0,4.0103,4.0174,4.0245,4.0295,4.0334,4.042,4.0405,4.0447,4.0422,4.0419,4.0516,4.0533,4.0587,4.0613,4.0589,4.0729,4.0703,4.0653,4.0571,4.0716,4.0772,4.0795,4.0489,4.0486,4.0484,4.0482,0,0,4.0345,4.0378,4.0404,4.0425,4.0457,4.051,4.0592,4.0646,4.0682,4.0716,4.0782,4.0866,4.0819,4.0847,4.0825,4.0883,4.1024,4.0825,4.0825,4.0861,4.1177,4.1215,4.1242,4.0995,4.1,4.1003,4.1174,0,4.0519,4.0663,4.0641,4.0779,4.0843,4.0786,4.0857,4.0882,4.0881,4.0933,4.093,4.099,4.0925,4.0941,4.0996,4.0995,4.1087,4.0982,4.1055,4.1058,4.105,4.1272,4.1312,4.1473,4.1196,4.12,4.1203,0,4.0743,4.0786,4.0932,4.0951,4.0977,4.1042,4.1088,4.114,4.1166,4.1161,4.1191,4.1158,4.1236,4.1153,4.1259,4.1189,4.1217,4.1221,4.1226,4.1232,4.114,4.1283,4.1524,4.1548,4.1237,4.1234,4.1232,0,4.0903,4.0998,4.1097,4.1117,4.1143,4.1189,4.1201,4.1223,4.1256,4.1296,4.1317,4.1364,4.1391,4.1427,4.1406,4.1348,4.1516,4.1431,4.1513,4.1513,4.1551,4.1549,4.18,4.157,4.1569,4.1569,4.1568,0,4.1101,4.1191,4.117,4.1231,4.1329,4.1301,4.1399,4.1404,4.1424,4.1482,4.1435,4.1491,4.146,4.1512,4.1496,4.1586,4.1598,4.1595,4.1589,4.1599,4.16,4.1617,4.1605,4.1575,4.1574,4.1572,4.1571,0,4.1298,4.1287,4.1391,4.1406,4.1412,4.1484,4.1496,4.1552,4.1546,4.1621,4.1637,4.1627,4.1687,4.1669,4.1733,4.1722,4.1836,4.1816,4.1828,4.1823,4.1905,4.1898,4.2176,4.221,4.1958,4.1961,4.1963,0,4.1424,4.1493,4.1516,4.1553,4.1569,4.1629,4.1663,4.1636,4.1673,4.1707,4.1758,4.1813,4.1856,4.1953,4.1951,4.1999,4.1979,4.2074,4.1986,4.1994,4.198,4.1976,4.1982,4.2091,4.2094,4.2096,4.2098,0,4.165,4.1641,4.1692,4.1742,4.1784,4.1821,4.1853,4.1885,4.1861,4.1904,4.1965,4.1998,4.2063,4.2118,4.2161,4.2171,4.2131,4.2126,4.2147,4.2158,4.2162,4.216,4.1875,4.212,4.2117,4.2116,4.2115,4.2114,4.1815,4.1872,4.1898,4.1956,4.1978,4.2009,4.2061,4.2062,4.2113,4.2165,4.2146,4.2215,4.2237,4.2291,4.2307,4.2359,4.2323,4.2354,4.2362,4.237,4.238,4.2153,4.2367,4.2366,4.2366,4.2365,4.2365,0,4.2037,4.205,4.2104,4.2152,4.2197,4.2156,4.2189,4.2229,4.2291,4.2316,4.2359,4.2428,4.248,4.2482,4.253,4.2572,4.2554,4.2585,4.2582,4.2585,4.241,4.2387,4.2599,4.2599,4.2599,4.2599,4.2599,4.2598,4.2158,4.2253,4.2247,4.2351,4.2362,4.2431,4.2454,4.2481,4.2501,4.258,4.2624,4.2625,4.264,4.2689,4.2735,4.2733,4.2753,4.2791,4.2783,4.262,4.2597,4.2575,4.2553,4.2796,4.2796,4.2953,4.2955,4.2956]}]]